DW6417 Weather Reports


Display with metric or nautical units.
time (UTC)temp
F
wind
direction
speed
MPH
gust
MPH
rain 1hr
in
rain 24hr
in
rain mn
in
humidity
%
barometer
mb
20260510130623 69 72 5.0 15.0 0.00 0.00 0.00 52 1010.0
20260510130418 69 48 4.0 15.0 0.00 0.00 0.00 52 1010.0
20260510125917 68 54 5.0 11.0 0.00 0.00 0.00 54 1010.0
20260510125623 68 50 5.0 11.0 0.00 0.00 0.00 50 1010.2
20260510125417 68 45 5.0 11.0 0.00 0.00 0.00 50 1010.2
20260510124917 69 26 3.0 10.0 0.00 0.00 0.00 53 1010.2
20260510124623 69 353 3.0 8.0 0.00 0.00 0.00 53 1010.4
20260510124417 69 45 4.0 10.0 0.00 0.00 0.00 53 1010.4
20260510123918 69 51 4.0 10.0 0.00 0.00 0.00 52 1010.4
20260510123623 69 47 4.0 8.0 0.00 0.00 0.00 54 1010.4
20260510123417 69 28 4.0 10.0 0.00 0.00 0.00 54 1010.4
20260510122918 69 24 4.0 11.0 0.00 0.00 0.00 54 1010.4
20260510122623 69 43 4.0 11.0 0.00 0.00 0.00 53 1010.5
20260510122417 69 34 4.0 11.0 0.00 0.00 0.00 53 1010.5
20260510121623 69 22 4.0 13.0 0.00 0.00 0.00 52 1010.7
20260510121418 69 51 4.0 12.0 0.00 0.00 0.00 52 1010.6
20260510120917 69 36 5.0 12.0 0.00 0.00 0.00 54 1010.7
20260510120623 69 88 5.0 11.0 0.00 0.00 0.00 53 1010.9
20260510120418 69 356 4.0 11.0 0.00 0.00 0.00 53 1010.9
20260510115623 69 17 5.0 12.0 0.00 0.00 0.00 55 1011.1
20260510115417 69 44 5.0 12.0 0.00 0.00 0.00 55 1011.1
20260510114917 69 36 4.0 11.0 0.00 0.00 0.00 54 1011.0
20260510114418 69 12 4.0 10.0 0.00 0.00 0.00 56 1011.0
20260510113623 68 334 5.0 10.0 0.00 0.00 0.00 57 1011.0
20260510113417 68 56 5.0 10.0 0.00 0.00 0.00 57 1011.1
20260510112917 68 46 4.0 13.0 0.00 0.00 0.00 53 1011.1
20260510112623 68 36 5.0 11.0 0.00 0.00 0.00 55 1011.1
20260510111917 68 26 4.0 10.0 0.00 0.00 0.00 58 1011.2
20260510111623 67 54 4.0 9.0 0.00 0.00 0.00 55 1011.1
20260510111418 67 356 3.0 11.0 0.00 0.00 0.00 55 1011.2
20260510110918 67 48 3.0 11.0 0.00 0.00 0.00 56 1011.2
20260510110417 67 80 4.0 11.0 0.00 0.00 0.00 58 1011.2
20260510105918 67 69 4.0 12.0 0.00 0.00 0.00 58 1011.2
20260510105417 68 25 4.0 12.0 0.00 0.00 0.00 56 1011.3
20260510104623 68 350 4.0 12.0 0.00 0.00 0.00 58 1011.4
20260510104418 68 50 5.0 12.0 0.00 0.00 0.00 58 1011.4
20260510103917 67 53 5.0 13.0 0.00 0.00 0.00 62 1011.5
20260510103623 67 328 4.0 13.0 0.00 0.00 0.00 58 1011.5
20260510103418 67 45 4.0 13.0 0.00 0.00 0.00 58 1011.5
20260510102918 67 36 4.0 11.0 0.00 0.00 0.00 56 1011.7
20260510102623 68 3 3.0 7.0 0.00 0.00 0.00 53 1011.8
20260510102417 68 14 3.0 7.0 0.00 0.00 0.00 53 1011.8
20260510101623 67 75 4.0 9.0 0.00 0.00 0.00 56 1011.8
20260510101417 67 59 4.0 11.0 0.00 0.00 0.00 55 1011.9
20260510100918 67 45 4.0 9.0 0.00 0.00 0.00 56 1011.8
20260510100623 67 41 3.0 9.0 0.00 0.00 0.00 55 1011.9
20260510100418 67 34 4.0 10.0 0.00 0.00 0.00 55 1011.9
20260510095917 67 41 4.0 10.0 0.00 0.00 0.00 58 1011.9
20260510095623 67 53 4.0 9.0 0.00 0.00 0.00 55 1011.8
20260510095417 67 30 3.0 9.0 0.00 0.00 0.00 55 1011.8
20260510094918 67 23 3.0 9.0 0.00 0.00 0.00 58 1012.0
20260510094623 66 26 4.0 9.0 0.00 0.00 0.00 57 1012.1
20260510094417 66 34 4.0 10.0 0.00 0.00 0.00 57 1012.1
20260510093623 66 59 5.0 10.0 0.00 0.00 0.00 58 1012.0
20260510093417 66 57 4.0 10.0 0.00 0.00 0.00 58 1012.1
20260510092918 65 59 4.0 10.0 0.00 0.00 0.00 59 1012.0
20260510092624 65 59 5.0 10.0 0.00 0.00 0.00 58 1012.1
20260510092417 65 57 4.0 10.0 0.00 0.00 0.00 58 1012.1
20260510091917 65 42 4.0 9.0 0.00 0.00 0.00 58 1012.1
20260510091624 65 45 4.0 8.0 0.00 0.00 0.00 60 1012.3
20260510091418 65 31 4.0 11.0 0.00 0.00 0.00 60 1012.3
20260510090918 65 49 3.0 11.0 0.00 0.00 0.00 60 1012.3
20260510090623 64 61 3.0 10.0 0.00 0.00 0.00 61 1012.3
20260510090417 64 63 4.0 10.0 0.00 0.00 0.00 61 1012.3
20260510085917 64 55 4.0 10.0 0.00 0.00 0.00 61 1012.3
20260510085623 64 51 4.0 9.0 0.00 0.00 0.00 61 1012.4
20260510085417 64 54 4.0 12.0 0.00 0.00 0.00 61 1012.4
20260510084917 64 62 5.0 12.0 0.00 0.00 0.00 61 1012.3
20260510084623 64 62 5.0 12.0 0.00 0.00 0.00 63 1012.4
20260510084417 64 60 4.0 12.0 0.00 0.00 0.00 63 1012.4
20260510083623 63 359 3.0 8.0 0.00 0.00 0.00 65 1012.5
20260510083418 63 15 4.0 9.0 0.00 0.00 0.00 65 1012.5
20260510082917 63 39 4.0 10.0 0.00 0.00 0.00 64 1012.4
20260510082623 62 42 4.0 10.0 0.00 0.00 0.00 65 1012.5
20260510082417 62 41 3.0 10.0 0.00 0.00 0.00 65 1012.5
20260510081917 62 47 4.0 10.0 0.00 0.00 0.00 64 1012.6
20260510081624 62 29 4.0 10.0 0.00 0.00 0.00 65 1012.5
20260510080917 62 47 4.0 8.0 0.00 0.00 0.00 67 1012.5
20260510080418 61 51 4.0 9.0 0.00 0.00 0.00 67 1012.6
20260510075624 60 56 4.0 9.0 0.00 0.00 0.00 67 1012.6
20260510075417 60 31 4.0 10.0 0.00 0.00 0.00 67 1012.6
20260510074917 60 352 3.0 10.0 0.00 0.00 0.00 68 1012.6
20260510074623 60 342 3.0 5.0 0.00 0.00 0.00 68 1012.6
20260510074418 60 341 3.0 6.0 0.00 0.00 0.00 68 1012.6
20260510073918 60 357 3.0 6.0 0.00 0.00 0.00 68 1012.6
20260510073623 60 360 3.0 6.0 0.00 0.00 0.00 69 1012.6
20260510073418 60 4 3.0 8.0 0.00 0.00 0.00 69 1012.6
20260510072917 59 354 3.0 8.0 0.00 0.00 0.00 70 1012.7
20260510072624 59 355 3.0 6.0 0.00 0.00 0.00 69 1012.6
20260510072418 59 349 3.0 6.0 0.00 0.00 0.00 69 1012.7
20260510071917 59 346 2.0 6.0 0.00 0.00 0.00 71 1012.7
20260510071624 58 346 2.0 5.0 0.00 0.00 0.00 74 1012.6
20260510071418 58 343 2.0 6.0 0.00 0.00 0.00 74 1012.6
20260510070917 58 341 3.0 8.0 0.00 0.00 0.00 74 1012.6
20260510070623 57 342 3.0 8.0 0.00 0.00 0.00 74 1012.7
20260510070418 57 339 3.0 8.0 0.00 0.00 0.00 74 1012.7
20260510065918 57 336 3.0 8.0 0.00 0.00 0.00 74 1012.7
20260510065623 56 337 4.0 8.0 0.00 0.00 0.00 75 1012.6
20260510065417 56 333 3.0 8.0 0.00 0.00 0.00 75 1012.6
20260510064918 56 12 3.0 6.0 0.00 0.00 0.00 76 1012.7
20260510064624 55 334 3.0 6.0 0.00 0.00 0.00 77 1012.6
20260510064417 55 61 2.0 6.0 0.00 0.00 0.00 77 1012.7
20260510063917 54 78 1.0 6.0 0.00 0.00 0.00 78 1012.7
20260510063623 54 78 1.0 3.0 0.00 0.00 0.00 79 1012.7
20260510063417 54 79 2.0 6.0 0.00 0.00 0.00 79 1012.7
20260510062918 53 79 2.0 6.0 0.00 0.00 0.00 79 1012.7
20260510062623 53 79 1.0 6.0 0.00 0.00 0.00 80 1012.6
20260510062418 53 79 2.0 6.0 0.00 0.00 0.00 80 1012.6
20260510061917 52 80 2.0 6.0 0.00 0.00 0.00 80 1012.7
20260510061624 52 82 2.0 5.0 0.00 0.00 0.00 81 1012.7
20260510061418 52 82 2.0 6.0 0.00 0.00 0.00 81 1012.7
20260510060917 52 83 2.0 5.0 0.00 0.00 0.00 81 1012.7
20260510060623 51 82 2.0 4.0 0.00 0.00 0.00 82 1012.7
20260510060417 51 84 1.0 4.0 0.00 0.00 0.00 82 1012.7
20260510055918 51 85 1.0 3.0 0.00 0.00 0.00 83 1012.7
20260510055623 51 84 2.0 3.0 0.00 0.00 0.00 83 1012.8
20260510055418 51 85 2.0 4.0 0.00 0.00 0.00 83 1012.7
20260510054918 51 85 1.0 4.0 0.00 0.00 0.00 83 1012.6
20260510054623 50 84 2.0 4.0 0.00 0.00 0.00 83 1012.7
20260510054418 50 85 2.0 4.0 0.00 0.00 0.00 83 1012.7
20260510053918 50 85 2.0 5.0 0.00 0.00 0.00 84 1012.7
20260510053623 50 85 2.0 5.0 0.00 0.00 0.00 84 1012.7
20260510052918 50 86 2.0 5.0 0.00 0.00 0.00 84 1012.7
20260510052624 50 85 2.0 5.0 0.00 0.00 0.00 84 1012.7
20260510052418 50 88 2.0 6.0 0.00 0.00 0.00 84 1012.7
20260510051917 49 90 2.0 6.0 0.00 0.00 0.00 85 1012.7
20260510051624 49 92 1.0 3.0 0.00 0.00 0.00 85 1012.7
20260510050918 49 97 1.0 8.0 0.00 0.00 0.00 85 1012.7
20260510050623 49 101 1.0 2.0 0.00 0.00 0.00 86 1012.7
20260510050417 49 100 1.0 3.0 0.00 0.00 0.00 86 1012.7
20260510045918 49 101 1.0 3.0 0.00 0.00 0.00 86 1012.6
20260510045418 49 101 1.0 2.0 0.00 0.00 0.00 86 1012.8
20260510044918 49 101 1.0 3.0 0.00 0.00 0.00 86 1012.8
20260510044623 48 101 1.0 3.0 0.00 0.00 0.00 86 1012.8
20260510044418 48 101 1.0 3.0 0.00 0.00 0.00 86 1012.7
20260510043918 48 101 1.0 4.0 0.00 0.00 0.00 86 1012.8
20260510043623 48 101 1.0 4.0 0.00 0.00 0.00 86 1012.8
20260510043417 48 108 1.0 4.0 0.00 0.00 0.00 86 1012.8
20260510042918 48 124 1.0 3.0 0.00 0.00 0.00 86 1012.7
20260510042623 48 129 1.0 3.0 0.00 0.00 0.00 86 1012.8
20260510042419 48 129 1.0 3.0 0.00 0.00 0.00 86 1012.8
20260510041917 48 129 1.0 3.0 0.00 0.00 0.00 86 1012.7
20260510041624 48 129 1.0 2.0 0.00 0.00 0.00 85 1012.7
20260510041418 48 0 0.0 2.0 0.00 0.00 0.00 85 1012.7
20260510040918 48 0 0.0 2.0 0.00 0.00 0.00 85 1012.6
20260510040417 48 0 0.0 2.0 0.00 0.00 0.00 85 1012.6
20260510035918 48 0 0.0 2.0 0.00 0.00 0.00 85 1012.7
20260510035623 48 129 0.0 2.0 0.00 0.00 0.00 85 1012.6
20260510035418 48 128 1.0 2.0 0.00 0.00 0.00 85 1012.6
20260510034623 48 129 0.0 2.0 0.00 0.00 0.00 85 1012.7
20260510034418 48 135 1.0 4.0 0.00 0.00 0.00 85 1012.7
20260510033918 48 137 1.0 4.0 0.00 0.00 0.00 85 1012.8
20260510033623 48 138 0.0 3.0 0.00 0.00 0.00 84 1012.7
20260510033418 48 0 0.0 3.0 0.00 0.00 0.00 84 1012.6
20260510032918 48 0 0.0 2.0 0.00 0.00 0.00 84 1012.7
20260510032624 48 138 0.0 2.0 0.00 0.00 0.00 84 1012.7
20260510032418 48 0 0.0 2.0 0.00 0.00 0.00 84 1012.7
20260510031918 48 137 1.0 3.0 0.00 0.00 0.00 84 1012.7
20260510031418 48 137 1.0 3.0 0.00 0.00 0.00 84 1012.7
20260510030624 48 138 0.0 0.0 0.00 0.00 0.00 84 1012.9
20260510030418 48 0 0.0 0.0 0.00 0.00 0.00 84 1012.9
20260510025918 48 0 0.0 0.0 0.00 0.00 0.00 84 1012.8
20260510025623 48 138 0.0 0.0 0.00 0.00 0.00 84 1012.8
20260510025418 48 0 0.0 0.0 0.00 0.00 0.00 84 1012.8
20260510024920 48 0 0.0 0.0 0.00 0.00 0.00 84 1012.8
20260510024624 48 138 0.0 0.0 0.00 0.00 0.00 84 1012.9
20260510023918 48 0 0.0 0.0 0.00 0.00 0.00 84 1012.9
20260510023624 48 138 0.0 0.0 0.00 0.00 0.00 84 1012.9
20260510023418 48 0 0.0 2.0 0.00 0.00 0.00 84 1012.9
20260510022918 48 138 1.0 2.0 0.00 0.00 0.00 84 1012.9
20260510022625 48 138 0.0 2.0 0.00 0.00 0.00 84 1012.9
20260510022418 48 137 1.0 4.0 0.00 0.00 0.00 84 1012.9
20260510021920 48 0 0.0 4.0 0.00 0.00 0.00 83 1012.9
20260510021418 48 0 0.0 2.0 0.00 0.00 0.00 82 1013.0
20260510020917 48 0 0.0 0.0 0.00 0.00 0.00 82 1012.9
20260510020624 48 138 0.0 0.0 0.00 0.00 0.00 82 1013.0
20260510020418 48 0 0.0 0.0 0.00 0.00 0.00 82 1013.0
20260510015918 48 0 0.0 0.0 0.00 0.00 0.00 82 1013.0
20260510015624 48 138 0.0 0.0 0.00 0.00 0.00 82 1013.0
20260510014918 48 0 0.0 0.0 0.00 0.00 0.00 82 1013.0
20260510014623 48 138 0.0 0.0 0.00 0.00 0.00 81 1013.0
20260510014418 48 0 0.0 0.0 0.00 0.00 0.00 81 1013.0
20260510013918 48 0 0.0 0.0 0.00 0.00 0.00 81 1013.0
20260510013624 48 138 0.0 0.0 0.00 0.00 0.00 81 1013.0
20260510013418 48 0 0.0 0.0 0.00 0.00 0.00 81 1013.0
20260510012918 48 0 0.0 0.0 0.00 0.00 0.00 81 1013.0
20260510012624 49 138 0.0 0.0 0.00 0.00 0.00 81 1013.0
20260510012418 49 0 0.0 0.0 0.00 0.00 0.00 81 1013.0
20260510011918 49 0 0.0 0.0 0.00 0.00 0.00 81 1013.1
20260510011624 49 138 0.0 0.0 0.00 0.00 0.00 81 1013.0
20260510011418 49 0 0.0 0.0 0.00 0.00 0.00 81 1013.0
20260510010418 49 0 0.0 0.0 0.00 0.00 0.00 81 1013.1
20260510005918 49 0 0.0 0.0 0.00 0.00 0.00 80 1013.1
20260510005624 49 138 0.0 0.0 0.00 0.00 0.00 80 1013.1
20260510005418 49 0 0.0 0.0 0.00 0.00 0.00 80 1013.1
20260510004624 49 138 0.0 0.0 0.00 0.00 0.00 80 1013.2
20260510004418 49 0 0.0 0.0 0.00 0.00 0.00 80 1013.2
20260510003918 49 0 0.0 0.0 0.00 0.00 0.00 79 1013.2
20260510003624 49 138 0.0 0.0 0.00 0.00 0.00 79 1013.2
20260510003418 49 0 0.0 0.0 0.00 0.00 0.00 79 1013.2
20260510002917 49 0 0.0 0.0 0.00 0.00 0.00 78 1013.1
20260510002624 50 138 0.0 0.0 0.00 0.00 0.00 78 1013.2
20260510002418 50 0 0.0 0.0 0.00 0.00 0.00 78 1013.2
20260510001918 50 0 0.0 0.0 0.00 0.00 0.00 78 1013.2
20260510001624 50 138 0.0 0.0 0.00 0.00 0.00 78 1013.2
20260510001418 50 0 0.0 0.0 0.00 0.00 0.00 78 1013.2
20260510000918 50 0 0.0 0.0 0.00 0.00 0.00 77 1013.2
20260510000624 51 138 0.0 0.0 0.00 0.00 0.00 77 1013.2
20260509235918 51 0 0.0 0.0 0.00 0.00 0.00 76 1013.2
20260509235624 51 138 0.0 0.0 0.00 0.00 0.00 76 1013.3
20260509235418 51 0 0.0 0.0 0.00 0.00 0.00 76 1013.4
20260509234918 51 0 0.0 0.0 0.00 0.00 0.00 76 1013.3
20260509234624 52 138 0.0 0.0 0.00 0.00 0.00 76 1013.3
20260509233918 52 0 0.0 0.0 0.00 0.00 0.00 76 1013.4
20260509233624 52 138 0.0 0.0 0.00 0.00 0.00 75 1013.4
20260509232918 52 0 0.0 0.0 0.00 0.00 0.00 75 1013.6
20260509232624 52 138 0.0 0.0 0.00 0.00 0.00 74 1013.5
20260509232420 52 0 0.0 0.0 0.00 0.00 0.00 74 1013.6
20260509231624 53 138 0.0 0.0 0.00 0.00 0.00 74 1013.7
20260509231418 53 0 0.0 0.0 0.00 0.00 0.00 74 1013.7
20260509230918 53 0 0.0 0.0 0.00 0.00 0.00 74 1013.7
20260509230624 53 138 0.0 0.0 0.00 0.00 0.00 74 1013.7
20260509230418 53 0 0.0 0.0 0.00 0.00 0.00 74 1013.7
20260509225918 53 0 0.0 0.0 0.00 0.00 0.00 73 1013.8
20260509225624 53 138 0.0 0.0 0.00 0.00 0.00 73 1013.8
20260509225418 53 0 0.0 0.0 0.00 0.00 0.00 73 1013.8
20260509224624 53 138 0.0 0.0 0.00 0.00 0.00 73 1013.9
20260509224418 53 0 0.0 0.0 0.00 0.00 0.00 73 1013.9
20260509223624 53 138 0.0 0.0 0.00 0.00 0.00 72 1013.9
20260509223418 53 0 0.0 2.0 0.00 0.00 0.00 72 1013.9
20260509222917 53 0 0.0 2.0 0.00 0.00 0.00 72 1013.8
20260509222624 54 138 0.0 0.0 0.00 0.00 0.00 72 1013.8
20260509222418 54 0 0.0 0.0 0.00 0.00 0.00 72 1013.9
20260509221918 54 0 0.0 0.0 0.00 0.00 0.00 73 1013.9
20260509221624 54 138 0.0 0.0 0.00 0.00 0.00 72 1013.9
20260509221418 54 0 0.0 0.0 0.00 0.00 0.00 73 1013.8
20260509220919 54 0 0.0 2.0 0.00 0.00 0.00 72 1013.9
20260509220624 54 138 1.0 2.0 0.00 0.00 0.00 72 1013.8
20260509215922 55 0 0.0 2.0 0.00 0.00 0.00 72 1013.8
20260509215624 55 138 0.0 0.0 0.00 0.00 0.00 72 1013.8
20260509215418 55 0 0.0 0.0 0.00 0.00 0.00 72 1013.8
20260509214918 55 0 0.0 0.0 0.00 0.00 0.00 71 1013.8
20260509214624 55 138 0.0 0.0 0.00 0.00 0.00 71 1013.9
20260509213918 55 0 0.0 1.0 0.00 0.00 0.00 71 1013.9
20260509213624 56 138 0.0 1.0 0.00 0.00 0.00 70 1014.0
20260509213419 56 0 0.0 1.0 0.00 0.00 0.00 70 1014.0
20260509212918 56 0 0.0 1.0 0.00 0.00 0.00 70 1014.0
20260509212418 56 0 0.0 1.0 0.00 0.00 0.00 69 1013.9
20260509211918 56 0 0.0 1.0 0.00 0.00 0.00 70 1014.0
20260509211624 56 138 0.0 1.0 0.00 0.00 0.00 69 1014.0
20260509211418 56 137 1.0 3.0 0.00 0.00 0.00 69 1014.0
20260509210624 56 138 1.0 4.0 0.00 0.00 0.00 68 1014.0
20260509210418 56 137 1.0 4.0 0.00 0.00 0.00 68 1014.0
20260509205918 56 137 1.0 3.0 0.00 0.00 0.00 67 1014.0
20260509205625 56 138 1.0 3.0 0.00 0.00 0.00 68 1013.9
20260509205418 56 137 1.0 3.0 0.00 0.00 0.00 68 1013.9
20260509204918 55 137 1.0 2.0 0.00 0.00 0.00 68 1013.9
20260509204624 55 138 1.0 2.0 0.00 0.00 0.00 69 1013.9
20260509204418 55 137 1.0 3.0 0.00 0.00 0.00 69 1013.9
20260509203918 55 137 1.0 3.0 0.00 0.00 0.00 70 1013.9
20260509203624 55 138 1.0 3.0 0.00 0.00 0.00 70 1013.9
20260509203418 55 137 1.0 3.0 0.00 0.00 0.00 70 1013.9
20260509202919 56 137 1.0 3.0 0.00 0.00 0.00 71 1014.0
20260509202624 56 138 0.0 2.0 0.00 0.00 0.00 70 1014.1
20260509202418 56 0 0.0 2.0 0.00 0.00 0.00 70 1014.1
20260509201920 56 0 0.0 2.0 0.00 0.00 0.00 70 1014.2
20260509201624 57 138 0.0 1.0 0.00 0.00 0.00 69 1014.2
20260509201418 56 0 0.0 2.0 0.00 0.00 0.00 70 1014.1
20260509200918 57 0 0.0 2.0 0.00 0.00 0.00 69 1014.2
20260509200418 57 0 0.0 2.0 0.00 0.00 0.00 69 1014.2
20260509195918 58 0 0.0 1.0 0.00 0.00 0.00 68 1014.1
20260509195624 58 138 0.0 1.0 0.00 0.00 0.00 68 1014.3
20260509194918 58 0 0.0 2.0 0.00 0.00 0.00 68 1014.1
20260509194624 59 138 0.0 1.0 0.00 0.00 0.00 67 1014.1
20260509194418 59 0 0.0 1.0 0.00 0.00 0.00 67 1014.1
20260509193918 59 0 0.0 2.0 0.00 0.00 0.00 66 1014.1
20260509193624 59 138 0.0 2.0 0.00 0.00 0.00 65 1014.1
20260509193418 59 0 0.0 2.0 0.00 0.00 0.00 65 1014.1
20260509192918 60 0 0.0 1.0 0.00 0.00 0.00 64 1014.0
20260509192624 60 138 0.0 1.0 0.00 0.00 0.00 63 1014.2
20260509192417 60 0 0.0 1.0 0.00 0.00 0.00 63 1014.2
20260509191918 60 0 0.0 2.0 0.00 0.00 0.00 63 1014.2
20260509191624 61 140 0.0 2.0 0.00 0.00 0.00 61 1014.1
20260509191418 61 69 1.0 3.0 0.00 0.00 0.00 61 1014.1
20260509190624 61 53 0.0 2.0 0.00 0.00 0.00 58 1014.0
20260509190418 61 54 1.0 2.0 0.00 0.00 0.00 58 1014.0
20260509185918 62 0 0.0 2.0 0.00 0.00 0.00 59 1013.9
20260509185624 62 53 0.0 2.0 0.00 0.00 0.00 58 1013.8
20260509184918 62 54 1.0 4.0 0.00 0.00 0.00 56 1013.9
20260509184624 62 53 1.0 3.0 0.00 0.00 0.00 56 1013.9
20260509184418 62 54 1.0 4.0 0.00 0.00 0.00 56 1013.9
20260509183918 63 54 1.0 4.0 0.00 0.00 0.00 55 1013.7
20260509183624 63 53 1.0 2.0 0.00 0.00 0.00 54 1013.7
20260509183418 63 54 1.0 4.0 0.00 0.00 0.00 54 1013.7
20260509182918 63 54 2.0 4.0 0.00 0.00 0.00 54 1013.6
20260509182624 63 53 2.0 4.0 0.00 0.00 0.00 54 1013.6
20260509181918 64 54 2.0 5.0 0.00 0.00 0.00 54 1013.6
20260509181624 64 53 1.0 5.0 0.00 0.00 0.00 54 1013.6
20260509181419 64 54 1.0 5.0 0.00 0.00 0.00 54 1013.6
20260509180918 64 48 1.0 5.0 0.00 0.00 0.00 53 1013.6
20260509180624 64 53 1.0 5.0 0.00 0.00 0.00 53 1013.6
20260509180418 64 38 1.0 5.0 0.00 0.00 0.00 53 1013.6
20260509175919 65 34 1.0 4.0 0.00 0.00 0.00 52 1013.6
20260509175624 65 33 1.0 4.0 0.00 0.00 0.00 51 1013.6
20260509175419 65 34 1.0 4.0 0.00 0.00 0.00 51 1013.6
20260509174919 65 34 1.0 3.0 0.00 0.00 0.00 52 1013.5
20260509174624 65 33 2.0 3.0 0.00 0.00 0.00 50 1013.6
20260509174418 65 34 2.0 5.0 0.00 0.00 0.00 50 1013.6
20260509173918 65 34 2.0 5.0 0.00 0.00 0.00 51 1013.5
20260509173624 65 33 1.0 4.0 0.00 0.00 0.00 51 1013.6
20260509173419 65 33 2.0 5.0 0.00 0.00 0.00 51 1013.5
20260509172918 65 33 2.0 5.0 0.00 0.00 0.00 50 1013.6
20260509172418 65 33 2.0 5.0 0.00 0.00 0.00 49 1013.5
20260509171919 66 33 1.0 5.0 0.00 0.00 0.00 49 1013.5
20260509171624 66 32 1.0 3.0 0.00 0.00 0.00 50 1013.5
20260509170918 66 33 2.0 4.0 0.00 0.00 0.00 49 1013.5
20260509170624 66 32 2.0 4.0 0.00 0.00 0.00 49 1013.5
20260509165419 66 32 2.0 7.0 0.00 0.00 0.00 49 1013.5
20260509164918 66 32 3.0 7.0 0.00 0.00 0.00 48 1013.5
20260509164624 66 31 2.0 7.0 0.00 0.00 0.00 49 1013.5
20260509164420 66 31 2.0 7.0 0.00 0.00 0.00 49 1013.5
20260509163919 66 30 3.0 5.0 0.00 0.00 0.00 50 1013.5
20260509163418 66 31 2.0 5.0 0.00 0.00 0.00 50 1013.5
20260509162624 66 30 2.0 5.0 0.00 0.00 0.00 48 1013.6
20260509162418 66 30 2.0 5.0 0.00 0.00 0.00 48 1013.7
20260509161919 66 30 2.0 4.0 0.00 0.00 0.00 49 1013.7
20260509161624 67 30 2.0 4.0 0.00 0.00 0.00 50 1013.7
20260509161418 67 30 1.0 4.0 0.00 0.00 0.00 50 1013.7
20260509160919 67 30 1.0 2.0 0.00 0.00 0.00 51 1013.8
20260509160418 67 0 0.0 2.0 0.00 0.00 0.00 47 1013.8
20260509155918 67 30 1.0 4.0 0.00 0.00 0.00 47 1013.8
20260509155624 67 30 2.0 4.0 0.00 0.00 0.00 46 1013.8
20260509155418 67 31 2.0 5.0 0.00 0.00 0.00 46 1013.8
20260509154918 67 30 3.0 7.0 0.00 0.00 0.00 48 1013.8
20260509154624 67 30 3.0 7.0 0.00 0.00 0.00 48 1013.8
20260509154419 67 30 2.0 7.0 0.00 0.00 0.00 48 1013.8
20260509153919 67 29 2.0 7.0 0.00 0.00 0.00 51 1013.7
20260509153624 67 28 3.0 7.0 0.00 0.00 0.00 49 1013.8
20260509153418 67 29 2.0 7.0 0.00 0.00 0.00 49 1013.8
20260509152918 67 29 2.0 5.0 0.00 0.00 0.00 50 1013.9
20260509152624 67 28 2.0 5.0 0.00 0.00 0.00 50 1014.1
20260509152419 67 29 2.0 5.0 0.00 0.00 0.00 50 1014.1
20260509151918 67 29 2.0 5.0 0.00 0.00 0.00 49 1014.2
20260509151625 68 28 2.0 5.0 0.00 0.00 0.00 45 1014.1
20260509151418 68 29 1.0 5.0 0.00 0.00 0.00 45 1014.1
20260509150624 68 28 3.0 5.0 0.00 0.00 0.00 45 1014.2
20260509145919 68 27 1.0 4.0 0.00 0.00 0.00 45 1014.2
20260509145624 69 26 2.0 4.0 0.00 0.00 0.00 45 1014.3
20260509145419 69 27 1.0 4.0 0.00 0.00 0.00 45 1014.3
20260509144918 69 29 1.0 3.0 0.00 0.00 0.00 47 1014.2
20260509144624 69 26 1.0 3.0 0.00 0.00 0.00 48 1014.1
20260509144418 69 32 1.0 5.0 0.00 0.00 0.00 48 1014.1
20260509143918 68 32 2.0 7.0 0.00 0.00 0.00 47 1014.3
20260509143624 69 32 2.0 7.0 0.00 0.00 0.00 48 1014.4
20260509143418 69 31 2.0 7.0 0.00 0.00 0.00 48 1014.4
20260509142919 69 30 2.0 7.0 0.00 0.00 0.00 47 1014.4
20260509142624 68 29 2.0 5.0 0.00 0.00 0.00 47 1014.5
20260509142418 68 30 2.0 5.0 0.00 0.00 0.00 47 1014.5
20260509141918 69 30 2.0 5.0 0.00 0.00 0.00 47 1014.4
20260509141624 70 30 2.0 3.0 0.00 0.00 0.00 45 1014.6
20260509141418 69 30 2.0 5.0 0.00 0.00 0.00 47 1014.5
20260509140625 70 30 2.0 4.0 0.00 0.00 0.00 45 1014.6
20260509140418 70 38 3.0 10.0 0.00 0.00 0.00 45 1014.6
20260509135919 71 54 4.0 10.0 0.00 0.00 0.00 45 1014.7
20260509135624 71 37 4.0 9.0 0.00 0.00 0.00 44 1014.8
20260509135419 71 100 4.0 9.0 0.00 0.00 0.00 44 1014.8
20260509134624 71 131 2.0 6.0 0.00 0.00 0.00 47 1014.9
20260509134419 71 123 2.0 6.0 0.00 0.00 0.00 47 1014.9
20260509133919 71 123 2.0 7.0 0.00 0.00 0.00 44 1014.9
20260509133624 71 123 2.0 7.0 0.00 0.00 0.00 45 1015.0
20260509133418 71 120 2.0 7.0 0.00 0.00 0.00 45 1015.0
20260509132918 71 73 2.0 6.0 0.00 0.00 0.00 46 1015.1
20260509132624 70 56 2.0 5.0 0.00 0.00 0.00 47 1015.0
20260509132419 70 22 3.0 6.0 0.00 0.00 0.00 47 1015.1
20260509131919 70 39 3.0 7.0 0.00 0.00 0.00 44 1015.1
20260509131624 70 355 3.0 7.0 0.00 0.00 0.00 48 1015.1
20260509131418 70 78 3.0 9.0 0.00 0.00 0.00 48 1015.1